This demonstration page uses our WeatherBlox Daily Observations layout. Learn more.

Left ArrowRight Arrow

Hourly Observations for June 7, 2020

Temp ( °F °C ) Dew Point ( °F °C ) Humidity (%) Winds ( mph kmh ) Pressure ( in mb ) Visibility ( mi km ) Precip ( " mm )
12:53 am 00:53 Clear 75 23.9 68 20 79 79 SSW 3 6 29.98 1015 10 16 0.00 0.00
1:53 am 01:53 Clear 73 22.8 68 20 84 84 S 3 6 29.98 1015 10 16 0.00 0.00
2:53 am 02:53 Clear 73 22.8 68 20 84 84 Calm 29.96 1015 10 16 0.00 0.00
3:53 am 03:53 Clear 71 21.7 68 20 90 90 Calm 29.95 1014 10 16 0.00 0.00
4:53 am 04:53 Clear 69 20.6 67 19.4 93 93 Calm 29.92 1013 10 16 0.00 0.00
5:53 am 05:53 Clear 70 21.1 67 19.4 90 90 Calm 29.93 1014 10 16 0.00 0.00
6:53 am 06:53 Sunny 69 20.6 66 18.9 90 90 Calm 29.95 1014 10 16 0.00 0.00
7:53 am 07:53 Sunny 70 21.1 68 20 93 93 Calm 29.96 1015 10 16 0.00 0.00
8:53 am 08:53 Sunny 74 23.3 68 20 82 82 VRB 3 6 29.97 1015 10 16 0.00 0.00
9:53 am 09:53 Mostly Sunny 76 24.4 68 20 77 77 SSE 3 6 29.98 1015 10 16 0.00 0.00
10:53 am 10:53 Mostly Sunny 80 26.7 68 20 67 67 VRB 6 9 29.95 1014 10 16 0.00 0.00
11:53 am 11:53 Sunny 82 27.8 67 19.4 60 60 VRB 6 9 29.95 1014 10 16 0.00 0.00
12:53 pm 12:53 Sunny 83 28.3 67 19.4 59 59 SE 9 15 29.93 1014 10 16 0.00 0.00
1:53 pm 13:53 Partly Cloudy 85 29.4 67 19.4 55 55 ESE 6 9 29.92 1013 10 16 0.00 0.00
2:53 pm 14:53 Partly Cloudy 86 30 67 19.4 53 53 SE 9 15 29.91 1013 10 16 0.00 0.00
3:53 pm 15:53 Partly Cloudy 85 29.4 67 19.4 55 55 SE 5 7 29.91 1013 10 16 0.00 0.00
4:53 pm 16:53 Partly Cloudy 86 30 67 19.4 53 53 SE 6 9 29.90 1013 10 16 0.00 0.00
5:53 pm 17:53 Partly Cloudy 85 29.4 68 20 57 57 SE 8 13 29.89 1012 10 16 0.00 0.00
6:53 pm 18:53 Sunny 86 30 68 20 55 55 ESE 7 11 29.87 1011 10 16 0.00 0.00
7:53 pm 19:53 Sunny 83 28.3 69 20.6 63 63 SE 7 11 29.88 1012 10 16 0.00 0.00
8:53 pm 20:53 Mostly Clear 82 27.8 69 20.6 65 65 SE 6 9 29.88 1012 10 16 0.00 0.00
9:53 pm 21:53 Clear 80 26.7 69 20.6 69 69 ESE 3 6 29.89 1012 10 16 0.00 0.00
10:53 pm 22:53 Clear 79 26.1 69 20.6 72 72 SE 5 7 29.91 1013 10 16 0.00 0.00
11:53 pm 23:53 Clear 78 25.6 70 21.1 76 76 Calm 29.91 1013 10 16 0.00 0.00

Powered by AerisWeather